HBLPT LEPA-LPCS

Flight info

Callsign HBLPT
Flight time 2h 4m
Altitude 39000
Route EPAMA N733 ARGOR DCT NASOS DCT CCS DCT UPULO
Aircraft P180/L-SBDFGM3RWXY/LB1

Departure

Time 2026-05-07 20:10
Airport Palma de Mallorca Airport (LEPA)

Arrival

Time 2026-05-07 22:14
Airport Cascais Airport (LPCS)
Time Latitude Longitude Altitude Speed Heading
2026-05-07 19:32 39.54233 2.72599 32 ft 0 kts 333°
2026-05-07 20:04 39.54237 2.72600 32 ft 1 kts 14°
2026-05-07 20:04 39.54218 2.72625 32 ft 9 kts 154°
2026-05-07 20:05 39.54223 2.72687 33 ft 9 kts 45°
2026-05-07 20:05 39.54258 2.72759 33 ft 10 kts 59°
2026-05-07 20:05 39.54275 2.72808 33 ft 4 kts 99°
2026-05-07 20:05 39.54250 2.72836 33 ft 6 kts 149°
2026-05-07 20:06 39.54218 2.72877 34 ft 4 kts 116°
2026-05-07 20:06 39.54198 2.72910 34 ft 6 kts 142°
2026-05-07 20:06 39.54175 2.72935 34 ft 0 kts 135°
2026-05-07 20:07 39.54169 2.72944 34 ft 2 kts 127°
2026-05-07 20:07 39.54159 2.72973 34 ft 5 kts 103°
2026-05-07 20:07 39.54155 2.73023 34 ft 6 kts 93°
2026-05-07 20:07 39.54154 2.73044 34 ft 0 kts 93°
2026-05-07 20:08 39.54154 2.73045 34 ft 1 kts 92°
2026-05-07 20:08 39.54151 2.73110 34 ft 14 kts 93°
2026-05-07 20:08 39.54156 2.73239 33 ft 12 kts 67°
2026-05-07 20:08 39.54170 2.73272 33 ft 0 kts 59°
2026-05-07 20:09 39.54193 2.73322 32 ft 28 kts 58°
2026-05-07 20:10 39.55008 2.75032 843 ft 153 kts 58°
2026-05-07 20:10 39.55598 2.76262 2150 ft 157 kts 58°
2026-05-07 20:10 39.56161 2.77414 3371 ft 150 kts 59°
2026-05-07 20:10 39.56738 2.78576 4290 ft 157 kts 59°
2026-05-07 20:11 39.57334 2.79775 5178 ft 160 kts 59°
2026-05-07 20:11 39.57943 2.81009 5984 ft 164 kts 59°
2026-05-07 20:11 39.58568 2.82278 6729 ft 171 kts 60°
2026-05-07 20:11 39.59212 2.83580 7475 ft 173 kts 58°
2026-05-07 20:12 39.59901 2.84976 7891 ft 196 kts 59°
2026-05-07 20:12 39.60644 2.86504 8483 ft 202 kts 59°
2026-05-07 20:12 39.61396 2.88061 9145 ft 206 kts 59°
2026-05-07 20:12 39.62159 2.89655 9771 ft 210 kts 59°
2026-05-07 20:13 39.62940 2.91284 10327 ft 214 kts 58°
2026-05-07 20:13 39.63731 2.92945 10886 ft 218 kts 59°
2026-05-07 20:13 39.64651 2.94518 11430 ft 221 kts 40°
2026-05-07 20:13 39.66056 2.95231 11986 ft 221 kts 357°
2026-05-07 20:14 39.67430 2.94514 12572 ft 215 kts 313°
2026-05-07 20:14 39.68069 2.92829 13146 ft 210 kts 278°
2026-05-07 20:14 39.68090 2.90980 13712 ft 208 kts 259°
2026-05-07 20:14 39.68092 2.89092 14196 ft 213 kts 286°
2026-05-07 20:15 39.68772 2.87381 14659 ft 217 kts 294°
2026-05-07 20:15 39.69354 2.85578 15123 ft 216 kts 285°
2026-05-07 20:15 39.69813 2.83663 15332 ft 229 kts 284°
2026-05-07 20:15 39.70305 2.81672 15739 ft 231 kts 285°
2026-05-07 20:16 39.70820 2.79689 16173 ft 233 kts 285°
2026-05-07 20:16 39.71338 2.77690 16617 ft 234 kts 285°
2026-05-07 20:16 39.71853 2.75675 17048 ft 236 kts 285°
2026-05-07 20:16 39.72364 2.73673 17463 ft 237 kts 285°
2026-05-07 20:17 39.72886 2.71631 17879 ft 239 kts 285°
2026-05-07 20:17 39.73413 2.69580 18291 ft 240 kts 285°
2026-05-07 20:17 39.73937 2.67512 18638 ft 241 kts 285°
2026-05-07 20:17 39.74467 2.65434 18987 ft 243 kts 285°
2026-05-07 20:18 39.75001 2.63350 19355 ft 243 kts 284°
2026-05-07 20:18 39.75531 2.61267 19724 ft 243 kts 284°
2026-05-07 20:18 39.76059 2.59186 20082 ft 243 kts 284°
2026-05-07 20:18 39.76556 2.57091 20444 ft 240 kts 277°
2026-05-07 20:19 39.76407 2.54978 20815 ft 235 kts 252°
2026-05-07 20:19 39.75954 2.52944 21198 ft 234 kts 253°
2026-05-07 20:19 39.75617 2.50868 21585 ft 235 kts 258°
2026-05-07 20:19 39.75375 2.48768 21978 ft 235 kts 259°
2026-05-07 20:20 39.75115 2.46668 22354 ft 236 kts 257°
2026-05-07 20:20 39.74835 2.44579 22811 ft 234 kts 257°
2026-05-07 20:20 39.74560 2.42511 23295 ft 231 kts 257°
2026-05-07 20:20 39.74292 2.40469 23753 ft 228 kts 257°
2026-05-07 20:21 39.74025 2.38443 24151 ft 227 kts 257°
2026-05-07 20:21 39.73764 2.36427 24532 ft 226 kts 258°
2026-05-07 20:21 39.73499 2.34421 24927 ft 225 kts 256°
2026-05-07 20:21 39.73229 2.32453 25363 ft 223 kts 257°
2026-05-07 20:22 39.72967 2.30467 25806 ft 222 kts 257°
2026-05-07 20:22 39.72708 2.28498 26276 ft 220 kts 256°
2026-05-07 20:22 39.72449 2.26548 26761 ft 218 kts 256°
2026-05-07 20:22 39.72194 2.24612 27223 ft 217 kts 256°
2026-05-07 20:23 39.71930 2.22669 27533 ft 224 kts 256°
2026-05-07 20:23 39.71649 2.20603 27538 ft 240 kts 256°
2026-05-07 20:23 39.71354 2.18389 27552 ft 257 kts 256°
2026-05-07 20:23 39.71039 2.16033 27569 ft 271 kts 257°
2026-05-07 20:24 39.70711 2.13563 27652 ft 282 kts 257°
2026-05-07 20:24 39.70378 2.11056 28053 ft 281 kts 257°
2026-05-07 20:24 39.70040 2.08558 28506 ft 280 kts 257°
2026-05-07 20:24 39.69705 2.06072 28973 ft 279 kts 257°
2026-05-07 20:25 39.69370 2.03593 29468 ft 278 kts 256°
2026-05-07 20:25 39.69036 2.01125 29995 ft 277 kts 257°
2026-05-07 20:25 39.68705 1.98669 30458 ft 275 kts 256°
2026-05-07 20:25 39.68379 1.96261 30902 ft 274 kts 256°
2026-05-07 20:26 39.68048 1.93835 31348 ft 272 kts 256°
2026-05-07 20:26 39.67720 1.91423 31786 ft 270 kts 256°
2026-05-07 20:26 39.67395 1.89030 32249 ft 268 kts 256°
2026-05-07 20:26 39.67068 1.86654 32678 ft 266 kts 256°
2026-05-07 20:27 39.66746 1.84294 33095 ft 265 kts 256°
2026-05-07 20:27 39.66424 1.81952 33507 ft 263 kts 256°
2026-05-07 20:27 39.66105 1.79617 33923 ft 262 kts 256°
2026-05-07 20:27 39.65786 1.77300 34269 ft 260 kts 256°
2026-05-07 20:28 39.65467 1.74988 34579 ft 259 kts 256°
2026-05-07 20:28 39.65150 1.72685 34879 ft 259 kts 256°
2026-05-07 20:28 39.64834 1.70395 35162 ft 258 kts 256°
2026-05-07 20:28 39.64517 1.68105 35434 ft 257 kts 256°
2026-05-07 20:29 39.64202 1.65824 35699 ft 256 kts 256°
2026-05-07 20:29 39.63885 1.63550 35953 ft 256 kts 256°
2026-05-07 20:29 39.63572 1.61285 36200 ft 255 kts 256°
2026-05-07 20:29 39.63256 1.59023 36437 ft 254 kts 256°
2026-05-07 20:30 39.62943 1.56768 36662 ft 254 kts 256°
2026-05-07 20:30 39.62628 1.54518 36878 ft 253 kts 256°
2026-05-07 20:30 39.62315 1.52269 37099 ft 253 kts 255°
2026-05-07 20:30 39.61999 1.50013 37232 ft 255 kts 255°
2026-05-07 20:31 39.61681 1.47757 37420 ft 254 kts 255°
2026-05-07 20:31 39.61370 1.45533 37610 ft 254 kts 255°
2026-05-07 20:31 39.61054 1.43286 37785 ft 253 kts 255°
2026-05-07 20:31 39.60739 1.41038 37954 ft 253 kts 255°
2026-05-07 20:32 39.60423 1.38799 38113 ft 253 kts 256°
2026-05-07 20:32 39.60227 1.36525 38267 ft 255 kts 261°
2026-05-07 20:32 39.60116 1.34234 38417 ft 254 kts 260°
2026-05-07 20:32 39.59981 1.31946 38564 ft 253 kts 260°
2026-05-07 20:33 39.59850 1.29668 38682 ft 253 kts 260°
2026-05-07 20:33 39.59724 1.27384 38767 ft 254 kts 261°
2026-05-07 20:33 39.59597 1.25099 38846 ft 254 kts 260°
2026-05-07 20:33 39.59468 1.22812 38924 ft 255 kts 261°
2026-05-07 20:34 39.59338 1.20517 38993 ft 255 kts 260°
2026-05-07 20:34 39.59209 1.18240 38993 ft 259 kts 261°
2026-05-07 20:34 39.59076 1.15903 38996 ft 261 kts 261°
2026-05-07 20:34 39.58940 1.13532 39015 ft 266 kts 261°
2026-05-07 20:35 39.58802 1.11120 39009 ft 270 kts 261°
2026-05-07 20:35 39.58662 1.08671 39010 ft 275 kts 261°
2026-05-07 20:35 39.58518 1.06185 39020 ft 278 kts 261°
2026-05-07 20:35 39.58373 1.03665 39021 ft 282 kts 261°
2026-05-07 20:36 39.58226 1.01117 39018 ft 285 kts 261°
2026-05-07 20:36 39.58075 0.98536 39020 ft 288 kts 261°
2026-05-07 20:36 39.57922 0.95931 39016 ft 291 kts 261°
2026-05-07 20:36 39.57768 0.93303 39017 ft 293 kts 261°
2026-05-07 20:37 39.57613 0.90659 39020 ft 295 kts 261°
2026-05-07 20:37 39.57455 0.87996 39000 ft 297 kts 261°
2026-05-07 20:37 39.57296 0.85323 39002 ft 298 kts 261°
2026-05-07 20:37 39.57136 0.82635 39004 ft 299 kts 261°
2026-05-07 20:38 39.56975 0.79941 39006 ft 300 kts 261°
2026-05-07 20:38 39.56648 0.74535 39014 ft 303 kts 261°
2026-05-07 20:39 39.56317 0.69077 39022 ft 304 kts 261°
2026-05-07 20:39 39.55983 0.63600 39016 ft 305 kts 261°
2026-05-07 20:40 39.55644 0.58107 39011 ft 306 kts 261°
2026-05-07 20:40 39.55303 0.52599 39011 ft 307 kts 261°
2026-05-07 20:41 39.54957 0.47083 39011 ft 308 kts 261°
2026-05-07 20:41 39.54611 0.41593 39008 ft 308 kts 261°
2026-05-07 20:42 39.54259 0.36043 39011 ft 309 kts 261°
2026-05-07 20:42 39.53903 0.30486 39009 ft 310 kts 261°
2026-05-07 20:43 39.53736 0.24889 39008 ft 311 kts 263°
2026-05-07 20:43 39.53564 0.19284 39010 ft 312 kts 263°
2026-05-07 20:44 39.53406 0.13667 39007 ft 312 kts 263°
2026-05-07 20:44 39.53242 0.08049 39007 ft 312 kts 263°
2026-05-07 20:45 39.53075 0.02465 39007 ft 312 kts 263°
2026-05-07 20:45 39.52905 -0.03172 39007 ft 313 kts 263°
2026-05-07 20:46 39.52731 -0.08824 39010 ft 314 kts 263°
2026-05-07 20:46 39.52555 -0.14483 39015 ft 315 kts 263°
2026-05-07 20:47 39.52375 -0.20155 39020 ft 315 kts 263°
2026-05-07 20:47 39.52194 -0.25808 39026 ft 316 kts 263°
2026-05-07 20:48 39.52007 -0.31496 39030 ft 316 kts 263°
2026-05-07 20:48 39.51819 -0.37191 39035 ft 316 kts 263°
2026-05-07 20:49 39.51628 -0.42855 39035 ft 317 kts 263°
2026-05-07 20:49 39.51433 -0.48592 39037 ft 317 kts 263°
2026-05-07 20:50 39.51235 -0.54296 39037 ft 317 kts 263°
2026-05-07 20:50 39.51037 -0.59966 39034 ft 317 kts 263°
2026-05-07 20:51 39.50833 -0.65675 39030 ft 317 kts 263°
2026-05-07 20:51 39.50627 -0.71391 39030 ft 318 kts 263°
2026-05-07 20:52 39.50418 -0.77098 39039 ft 318 kts 263°
2026-05-07 20:52 39.50206 -0.82825 39024 ft 318 kts 263°
2026-05-07 20:53 39.49988 -0.88554 39023 ft 319 kts 263°
2026-05-07 20:53 39.49811 -0.93327 39028 ft 320 kts 263°
2026-05-07 20:54 39.49552 -1.00025 39041 ft 320 kts 263°
2026-05-07 20:54 39.49362 -1.04860 39041 ft 321 kts 263°
2026-05-07 20:55 39.49137 -1.10598 39044 ft 321 kts 263°
2026-05-07 20:55 39.48906 -1.16389 39042 ft 323 kts 263°
2026-05-07 20:56 39.48670 -1.22208 39042 ft 323 kts 263°
2026-05-07 20:56 39.48432 -1.28033 39036 ft 324 kts 263°
2026-05-07 20:57 39.48189 -1.33865 39034 ft 324 kts 263°
2026-05-07 20:57 39.47947 -1.39656 39031 ft 324 kts 263°
2026-05-07 20:58 39.47699 -1.45479 39028 ft 324 kts 263°
2026-05-07 20:58 39.47448 -1.51308 39026 ft 324 kts 263°
2026-05-07 20:59 39.47196 -1.57155 39025 ft 325 kts 263°
2026-05-07 20:59 39.46938 -1.63007 39028 ft 326 kts 263°
2026-05-07 21:00 39.46678 -1.68861 39023 ft 326 kts 263°
2026-05-07 21:00 39.46416 -1.74678 39023 ft 326 kts 263°
2026-05-07 21:01 39.46149 -1.80542 39023 ft 326 kts 263°
2026-05-07 21:01 39.45879 -1.86409 39021 ft 327 kts 263°
2026-05-07 21:02 39.45608 -1.92279 39018 ft 327 kts 263°
2026-05-07 21:02 39.45329 -1.98166 39019 ft 328 kts 263°
2026-05-07 21:03 39.45050 -2.04062 39011 ft 329 kts 263°
2026-05-07 21:03 39.44765 -2.09970 39011 ft 329 kts 263°
2026-05-07 21:04 39.44478 -2.15883 39008 ft 329 kts 263°
2026-05-07 21:04 39.44191 -2.21756 39008 ft 329 kts 263°
2026-05-07 21:05 39.43898 -2.27678 39008 ft 330 kts 263°
2026-05-07 21:05 39.43600 -2.33618 39001 ft 331 kts 263°
2026-05-07 21:06 39.43300 -2.39567 39001 ft 332 kts 263°
2026-05-07 21:06 39.42995 -2.45531 38990 ft 332 kts 263°
2026-05-07 21:07 39.42687 -2.51505 38991 ft 333 kts 263°
2026-05-07 21:07 39.42375 -2.57475 38991 ft 333 kts 263°
2026-05-07 21:08 39.42061 -2.63449 38981 ft 333 kts 263°
2026-05-07 21:08 39.41743 -2.69397 38982 ft 334 kts 264°
2026-05-07 21:09 39.41424 -2.75402 38973 ft 335 kts 264°
2026-05-07 21:09 39.41097 -2.81408 38968 ft 335 kts 264°
2026-05-07 21:10 39.40768 -2.87425 38968 ft 335 kts 264°
2026-05-07 21:10 39.40436 -2.93443 38961 ft 336 kts 263°
2026-05-07 21:11 39.40101 -2.99465 38961 ft 336 kts 263°
2026-05-07 21:11 39.40223 -3.08504 38958 ft 338 kts 271°
2026-05-07 21:12 39.40510 -3.14594 38959 ft 339 kts 271°
2026-05-07 21:12 39.40392 -3.20652 38957 ft 337 kts 261°
2026-05-07 21:13 39.39939 -3.26691 38957 ft 338 kts 264°
2026-05-07 21:13 39.39602 -3.32750 38954 ft 337 kts 263°
2026-05-07 21:14 39.39206 -3.38754 38955 ft 337 kts 264°
2026-05-07 21:14 39.38830 -3.44809 38954 ft 338 kts 264°
2026-05-07 21:15 39.38440 -3.50867 38955 ft 338 kts 264°
2026-05-07 21:15 39.38051 -3.56923 38949 ft 338 kts 264°
2026-05-07 21:16 39.37660 -3.62940 38951 ft 338 kts 264°
2026-05-07 21:16 39.37263 -3.68989 38945 ft 338 kts 263°
2026-05-07 21:17 39.36865 -3.75037 38944 ft 338 kts 264°
2026-05-07 21:17 39.36463 -3.81087 38948 ft 338 kts 263°
2026-05-07 21:18 39.36057 -3.87144 38943 ft 338 kts 264°
2026-05-07 21:18 39.35647 -3.93203 38943 ft 338 kts 264°
2026-05-07 21:19 39.35236 -3.99256 38944 ft 338 kts 264°
2026-05-07 21:19 39.34819 -4.05318 38943 ft 338 kts 264°
2026-05-07 21:20 39.34400 -4.11373 38943 ft 338 kts 264°
2026-05-07 21:20 39.33979 -4.17431 38944 ft 339 kts 263°
2026-05-07 21:21 39.33555 -4.23455 38940 ft 339 kts 263°
2026-05-07 21:21 39.33127 -4.29518 38935 ft 339 kts 264°
2026-05-07 21:22 39.32696 -4.35571 38935 ft 339 kts 263°
2026-05-07 21:22 39.32260 -4.41631 38932 ft 338 kts 263°
2026-05-07 21:23 39.31824 -4.47688 38936 ft 338 kts 263°
2026-05-07 21:23 39.31381 -4.53736 38926 ft 338 kts 263°
2026-05-07 21:24 39.30939 -4.59791 38933 ft 338 kts 264°
2026-05-07 21:24 39.30492 -4.65847 38933 ft 338 kts 264°
2026-05-07 21:25 39.30040 -4.71893 38934 ft 338 kts 263°
2026-05-07 21:25 39.29591 -4.77901 38931 ft 338 kts 264°
2026-05-07 21:26 39.29134 -4.83947 38932 ft 338 kts 263°
2026-05-07 21:26 39.28676 -4.89994 38923 ft 338 kts 263°
2026-05-07 21:27 39.28212 -4.96035 38936 ft 338 kts 264°
2026-05-07 21:27 39.27746 -5.02089 38932 ft 339 kts 264°
2026-05-07 21:28 39.27277 -5.08136 38930 ft 338 kts 264°
2026-05-07 21:28 39.26805 -5.14188 38929 ft 338 kts 264°
2026-05-07 21:29 39.26330 -5.20227 38926 ft 338 kts 264°
2026-05-07 21:29 39.25853 -5.26271 38928 ft 338 kts 264°
2026-05-07 21:30 39.25371 -5.32304 38931 ft 338 kts 264°
2026-05-07 21:30 39.24891 -5.38290 38935 ft 338 kts 264°
2026-05-07 21:31 39.24406 -5.44311 38935 ft 337 kts 264°
2026-05-07 21:31 39.23916 -5.50333 38940 ft 337 kts 264°
2026-05-07 21:32 39.23424 -5.56339 38940 ft 337 kts 264°
2026-05-07 21:32 39.22930 -5.62347 38936 ft 337 kts 264°
2026-05-07 21:33 39.22432 -5.68346 38940 ft 336 kts 264°
2026-05-07 21:33 39.21932 -5.74346 38940 ft 336 kts 265°
2026-05-07 21:34 39.21431 -5.80340 38943 ft 336 kts 265°
2026-05-07 21:34 39.20928 -5.86282 38941 ft 335 kts 265°
2026-05-07 21:35 39.20420 -5.92270 38943 ft 335 kts 265°
2026-05-07 21:35 39.19909 -5.98254 38943 ft 335 kts 265°
2026-05-07 21:36 39.19395 -6.04227 38931 ft 335 kts 265°
2026-05-07 21:36 39.18878 -6.10196 38932 ft 335 kts 265°
2026-05-07 21:37 39.18362 -6.16147 38934 ft 334 kts 265°
2026-05-07 21:37 39.17841 -6.22089 38934 ft 333 kts 265°
2026-05-07 21:38 39.17320 -6.28016 38934 ft 333 kts 265°
2026-05-07 21:38 39.16881 -6.32940 38937 ft 333 kts 265°
2026-05-07 21:39 39.16270 -6.39824 38936 ft 332 kts 265°
2026-05-07 21:39 39.15740 -6.45740 38934 ft 332 kts 265°
2026-05-07 21:40 39.15298 -6.50644 38927 ft 331 kts 265°
2026-05-07 21:40 39.14764 -6.56536 38937 ft 330 kts 265°
2026-05-07 21:41 39.14229 -6.62411 38937 ft 330 kts 265°
2026-05-07 21:41 39.13959 -6.65357 38740 ft 336 kts 265°
2026-05-07 21:41 39.13682 -6.68396 38234 ft 344 kts 265°
2026-05-07 21:42 39.13399 -6.71475 37739 ft 348 kts 265°
2026-05-07 21:42 39.13111 -6.74586 37264 ft 352 kts 265°
2026-05-07 21:42 39.12820 -6.77734 36848 ft 354 kts 266°
2026-05-07 21:42 39.12525 -6.80904 36444 ft 357 kts 266°
2026-05-07 21:43 39.12229 -6.84084 36048 ft 360 kts 266°
2026-05-07 21:43 39.11942 -6.87306 35642 ft 363 kts 266°
2026-05-07 21:43 39.11433 -6.90524 35253 ft 369 kts 260°
2026-05-07 21:43 39.10646 -6.93656 34876 ft 376 kts 254°
2026-05-07 21:44 39.09556 -6.96741 34504 ft 380 kts 248°
2026-05-07 21:44 39.08325 -6.99746 34128 ft 378 kts 248°
2026-05-07 21:44 39.07127 -7.02754 33725 ft 377 kts 249°
2026-05-07 21:44 39.05934 -7.05762 33298 ft 378 kts 249°
2026-05-07 21:45 39.04718 -7.08769 32871 ft 379 kts 249°
2026-05-07 21:45 39.03495 -7.11772 32462 ft 380 kts 249°
2026-05-07 21:45 39.02273 -7.14794 32050 ft 380 kts 249°
2026-05-07 21:45 39.01061 -7.17812 31645 ft 380 kts 249°
2026-05-07 21:46 38.99840 -7.20831 31247 ft 380 kts 249°
2026-05-07 21:46 38.98615 -7.23839 30820 ft 380 kts 251°
2026-05-07 21:46 38.97393 -7.26851 30437 ft 379 kts 251°
2026-05-07 21:46 38.96178 -7.29848 30058 ft 378 kts 251°
2026-05-07 21:47 38.94978 -7.32809 29636 ft 378 kts 251°
2026-05-07 21:47 38.93767 -7.35795 29207 ft 376 kts 250°
2026-05-07 21:47 38.92548 -7.38774 28786 ft 375 kts 250°
2026-05-07 21:47 38.91339 -7.41735 28374 ft 373 kts 250°
2026-05-07 21:48 38.90147 -7.44690 27974 ft 370 kts 250°
2026-05-07 21:48 38.89074 -7.47672 27575 ft 367 kts 253°
2026-05-07 21:48 38.88076 -7.50681 27159 ft 365 kts 254°
2026-05-07 21:48 38.87111 -7.53676 26772 ft 362 kts 254°
2026-05-07 21:49 38.86167 -7.56660 26389 ft 360 kts 254°
2026-05-07 21:49 38.85240 -7.59632 26013 ft 358 kts 254°
2026-05-07 21:49 38.84321 -7.62595 25617 ft 356 kts 255°
2026-05-07 21:49 38.83398 -7.65539 25231 ft 355 kts 254°
2026-05-07 21:50 38.82498 -7.68449 24851 ft 355 kts 254°
2026-05-07 21:50 38.81601 -7.71394 24472 ft 354 kts 254°
2026-05-07 21:50 38.80719 -7.74343 24101 ft 354 kts 254°
2026-05-07 21:50 38.79853 -7.77291 23731 ft 353 kts 254°
2026-05-07 21:51 38.79003 -7.80236 23328 ft 352 kts 254°
2026-05-07 21:51 38.78166 -7.83182 22888 ft 350 kts 254°
2026-05-07 21:51 38.77346 -7.86111 22441 ft 349 kts 254°
2026-05-07 21:51 38.76542 -7.89030 22021 ft 347 kts 254°
2026-05-07 21:52 38.75745 -7.91943 21598 ft 345 kts 254°
2026-05-07 21:52 38.74966 -7.94839 21179 ft 343 kts 254°
2026-05-07 21:52 38.74197 -7.97721 20771 ft 341 kts 254°
2026-05-07 21:52 38.73441 -8.00590 20360 ft 339 kts 254°
2026-05-07 21:53 38.72700 -8.03441 19966 ft 337 kts 254°
2026-05-07 21:53 38.71970 -8.06283 19569 ft 335 kts 254°
2026-05-07 21:53 38.71254 -8.09110 19174 ft 333 kts 254°
2026-05-07 21:53 38.70550 -8.11928 18788 ft 331 kts 254°
2026-05-07 21:54 38.69865 -8.14701 18413 ft 330 kts 254°
2026-05-07 21:54 38.69186 -8.17502 18003 ft 328 kts 254°
2026-05-07 21:54 38.68513 -8.20299 17523 ft 329 kts 254°
2026-05-07 21:54 38.67843 -8.23107 17044 ft 330 kts 254°
2026-05-07 21:55 38.67174 -8.25923 16572 ft 330 kts 254°
2026-05-07 21:55 38.66509 -8.28743 16108 ft 331 kts 254°
2026-05-07 21:55 38.65845 -8.31559 15651 ft 330 kts 254°
2026-05-07 21:55 38.65186 -8.34373 15200 ft 330 kts 254°
2026-05-07 21:56 38.64534 -8.37154 14767 ft 329 kts 254°
2026-05-07 21:56 38.63877 -8.39945 14325 ft 326 kts 254°
2026-05-07 21:56 38.63233 -8.42668 13900 ft 314 kts 253°
2026-05-07 21:56 38.62617 -8.45305 13440 ft 303 kts 254°
2026-05-07 21:57 38.62029 -8.47859 12940 ft 296 kts 254°
2026-05-07 21:57 38.61464 -8.50359 12480 ft 290 kts 254°
2026-05-07 21:57 38.60904 -8.52827 12010 ft 287 kts 253°
2026-05-07 21:57 38.60356 -8.55267 11552 ft 284 kts 254°
2026-05-07 21:58 38.59825 -8.57683 11101 ft 281 kts 254°
2026-05-07 21:58 38.59306 -8.60087 10656 ft 279 kts 253°
2026-05-07 21:58 38.58797 -8.62477 10220 ft 279 kts 254°
2026-05-07 21:58 38.58301 -8.64866 9770 ft 277 kts 254°
2026-05-07 21:59 38.57807 -8.67245 9303 ft 277 kts 253°
2026-05-07 21:59 38.57308 -8.69618 8830 ft 275 kts 253°
2026-05-07 21:59 38.56846 -8.71985 8376 ft 274 kts 255°
2026-05-07 21:59 38.56372 -8.74335 7915 ft 272 kts 254°
2026-05-07 22:00 38.55875 -8.76666 7466 ft 271 kts 254°
2026-05-07 22:00 38.55395 -8.78966 7022 ft 270 kts 254°
2026-05-07 22:00 38.54908 -8.81273 6590 ft 267 kts 254°
2026-05-07 22:00 38.54420 -8.83580 6158 ft 264 kts 254°
2026-05-07 22:01 38.53941 -8.85822 5773 ft 260 kts 254°
2026-05-07 22:01 38.53461 -8.88003 5394 ft 257 kts 254°
2026-05-07 22:01 38.52954 -8.90182 5013 ft 254 kts 254°
2026-05-07 22:01 38.52439 -8.92343 4628 ft 254 kts 254°
2026-05-07 22:02 38.51904 -8.94486 4238 ft 253 kts 253°
2026-05-07 22:02 38.51366 -8.96611 4013 ft 246 kts 255°
2026-05-07 22:02 38.50877 -8.98691 4007 ft 246 kts 255°
2026-05-07 22:02 38.50439 -9.00810 4012 ft 248 kts 259°
2026-05-07 22:03 38.50133 -9.02975 4009 ft 248 kts 262°
2026-05-07 22:03 38.49913 -9.05165 4019 ft 250 kts 265°
2026-05-07 22:03 38.49701 -9.07359 4020 ft 250 kts 264°
2026-05-07 22:03 38.49462 -9.09567 4019 ft 252 kts 264°
2026-05-07 22:04 38.49205 -9.11777 4018 ft 252 kts 264°
2026-05-07 22:04 38.48972 -9.13994 4019 ft 253 kts 264°
2026-05-07 22:04 38.48728 -9.16189 4021 ft 252 kts 263°
2026-05-07 22:04 38.48450 -9.18404 4025 ft 253 kts 263°
2026-05-07 22:05 38.48179 -9.20618 4011 ft 252 kts 264°
2026-05-07 22:05 38.47919 -9.22828 4012 ft 252 kts 264°
2026-05-07 22:05 38.47656 -9.25037 4011 ft 251 kts 264°
2026-05-07 22:05 38.47389 -9.27274 3789 ft 258 kts 264°
2026-05-07 22:06 38.47119 -9.29543 3530 ft 259 kts 263°
2026-05-07 22:06 38.46857 -9.31825 3280 ft 260 kts 264°
2026-05-07 22:06 38.46597 -9.34105 3034 ft 259 kts 264°
2026-05-07 22:06 38.46337 -9.36343 3014 ft 257 kts 263°
2026-05-07 22:07 38.46077 -9.38588 3018 ft 256 kts 264°
2026-05-07 22:07 38.45810 -9.40831 3026 ft 255 kts 264°
2026-05-07 22:07 38.45578 -9.43070 3019 ft 253 kts 269°
2026-05-07 22:07 38.45957 -9.45214 3005 ft 249 kts 300°
2026-05-07 22:08 38.47208 -9.46675 2998 ft 246 kts 334°
2026-05-07 22:08 38.48881 -9.46952 2997 ft 247 kts
2026-05-07 22:08 38.50402 -9.45952 3010 ft 251 kts 40°
2026-05-07 22:08 38.51521 -9.44249 3011 ft 247 kts 51°
2026-05-07 22:09 38.52636 -9.42631 3011 ft 240 kts 41°
2026-05-07 22:09 38.53955 -9.41355 3010 ft 236 kts 31°
2026-05-07 22:09 38.55207 -9.40013 3003 ft 237 kts 49°
2026-05-07 22:09 38.55851 -9.38032 2760 ft 245 kts 73°
2026-05-07 22:10 38.56175 -9.35951 2546 ft 232 kts 76°
2026-05-07 22:10 38.56534 -9.33990 2347 ft 222 kts 71°
2026-05-07 22:10 38.57053 -9.32178 2135 ft 213 kts 57°
2026-05-07 22:10 38.58132 -9.31004 2007 ft 201 kts 20°
2026-05-07 22:11 38.59461 -9.30750 2002 ft 189 kts 353°
2026-05-07 22:11 38.60703 -9.31197 2004 ft 184 kts 341°
2026-05-07 22:11 38.61913 -9.31682 2006 ft 181 kts 343°
2026-05-07 22:11 38.63090 -9.32100 2004 ft 168 kts 343°
2026-05-07 22:12 38.64195 -9.32505 1876 ft 164 kts 344°
2026-05-07 22:12 38.65267 -9.32885 1670 ft 151 kts 344°
2026-05-07 22:12 38.66184 -9.33219 1474 ft 128 kts 343°
2026-05-07 22:12 38.67016 -9.33528 1305 ft 126 kts 345°
2026-05-07 22:13 38.67848 -9.33823 1125 ft 123 kts 344°
2026-05-07 22:13 38.68664 -9.34111 958 ft 120 kts 343°
2026-05-07 22:13 38.69462 -9.34411 805 ft 121 kts 342°
2026-05-07 22:13 38.70266 -9.34693 653 ft 118 kts 342°
2026-05-07 22:14 38.71037 -9.34988 505 ft 114 kts 342°
2026-05-07 22:14 38.71786 -9.35257 350 ft 108 kts 341°
2026-05-07 22:14 38.72450 -9.35500 310 ft 82 kts 344°
2026-05-07 22:14 38.72683 -9.35583 318 ft 11 kts 346°
2026-05-07 22:15 38.72671 -9.35594 317 ft 12 kts 152°
2026-05-07 22:15 38.72580 -9.35546 315 ft 11 kts 165°
2026-05-07 22:15 38.72529 -9.35608 313 ft 11 kts 257°
2026-05-07 22:15 38.72527 -9.35716 311 ft 10 kts 249°
2026-05-07 22:16 38.72489 -9.35710 309 ft 5 kts 99°
2026-05-07 22:16 38.72495 -9.35676 310 ft 0 kts 74°